STARLINK-33753, 63443

Orbit data source: Space-Track

STARLINK-33753, 63443 is a payload satellite owned by SpaceX/Seattle (US) in LEO that was launched on Fri, 04 Apr 2025 UTC via an FALCON 9 launch vehicle from the Air Force Western Test Range (AFWTR). Payload-class satellites include a variety of spacecraft equipped with specific instruments for various scientific and technological missions. These include communications satellites like Starlink; space stations such as the ISS; scientific satellites like the Hubble; Earth observation satellites from companies like Planet Labs, Umbra, and HawkEye 360; GPS; miniature CubeSats for education and research; and military/defense satellites.

Loading next visibility...
Identifier
63443, 2025-069L
Orbit
LEO
Country
Flag of USUS
Related business
Manufacturer
SpaceX/Seattle
Mission
Operational Commercial Communications
Bus & Motor
STARLINK V2MO, Unknown motor
Mass
575 kg wet, ~530 kg dry
Launch date (UTC)
2025-04-04 (1 year ago)
Launch vehicle
FALCON 9
Launch site
Air Force Western Test Range (AFWTR)
Object type
Payload
Rocket body
Debris
Shape & HBR
Box + 2 Pan, 17.7 m
Radar Cross Section
36.964 m², Large (>1 m²)

Expand to show TLE details & history
Last TLE update: 10 hours ago

TLE from 10 hours ago
0 STARLINK-33753
1 63443U 25069L   26145.31156735  .00030950  00000-0  71737-3 0  9996
2 63443  53.1596 143.8954 0001090  97.1607 262.9523 15.42177786 65160
Epoch: 2026-05-25T07:28Z
TLE epoch observation values (Epoch: 2026-05-25T07:28:39.419Z)
Latitude
0.00001°
Longitude
148.82998°
Altitude
440.679 km
Speed
7.649 km/s
True Right ascension
09h 35m 34s
True Declination
0° 00' 00"
Sunlit
Object was in daylight at epoch
Visualization orbit readout
Latitude
Unknown
Longitude
Unknown
Altitude
Unknown
Speed
Unknown
Apparent Right ascension
Unknown
Apparent Declination
Unknown
Sunlit
N/A
Visualization observer readout
Local Sidereal Time
03:05:15
Azimuth
Unknown
Elevation
Unknown
Doppler factor
Unknown
Orbital elements
Apogee altitude
440.684 km
Perigee altitude
439.198 km
Semi-major axis
6,818.078 km
Eccentricity
0.00011
Inclination
53.1596°
RAAN
143.8954°
Arg. of periapsis
97.1607°
True anomaly
262.9399°
Mean anomaly
262.9523°
Eccentric anomaly
262.9461°
Mean motion
3.85523 °/min
Orbital period
93.38 mins
BSTAR
0.00071737
Loading maneuver chart data...
Computing Atmospheric mass density...
Loading historical data...
Loading historical data...
Loading historical data...
Loading historical data...
Loading historical data...
Loading historical data...
Loading historical data...

Documentation

Showing up to 5 results
|